Tropical Cyclones
[Index]
Main Index Home Page Stock Weather Photos Extreme Storms Discussion Storm News and Storm Chasing Reports Tropical Cyclones / Hurricanes / Typhoons Weather Data and Links Wild Fires / Bushfires Weather Observation Techniques Weather Picture Catalogue Tornado Pictures and Reports Stock Video Footage and DVDs for sale
Season 1978-1979 Tropical Cyclone PETER Track Map
Season 1978-1979 Summaries: [BoM-AU] [JTWC-AU] [JTWC-SIO] [JTWC-SPAC] [JTWC-SH]
<<- Previous TC | BoM 1978-1979 Season | Next TC ->>

click for intensity scale information  Lat/long Grid: Show Hide

 Date Labels: Show Hide

Bureau of Meteorology Tropical Cyclone Data

Name: PETER
Number: 584 / 197879_01

29 Dec 1978 20:00 UTC to 03 Jan 1979 11:00 UTC

    date/time    lat    long    hPa   cat  kts
1978-12-29 20   12.7   137.4    995    1                
1978-12-29 23   12.7   137.7    995    1                
1978-12-30 05   12.9   138.3    990    1                
1978-12-30 11   13.3   138.9    990    1                
1978-12-30 17   13.7   139.6    985    2                
1978-12-30 23   14.1   140.3    985    2                
1978-12-31 05   14.4   140.9    980    2                
1978-12-31 11   14.7   141.6    986    1                
1978-12-31 17   14.9   142.4    988    1                
1978-12-31 23   15.1   143.7    990    1                
1979-01-01 05   15.1   144.0    990    1                
1979-01-01 11   15.2   144.8    992    1                
1979-01-01 14   15.2   145.2    994    1                
1979-01-01 17   15.3   145.5    993    1                
1979-01-01 20   15.5   145.5    994    1                
1979-01-01 23   15.5   145.4    995    1                
1979-01-02 02   15.4   145.3    995    1                
1979-01-02 05   15.4   145.3    995    1                
1979-01-02 11   15.5   145.4    997                     
1979-01-02 17   15.3   145.3    994    1                
1979-01-02 23   15.1   145.5    998                     
1979-01-03 05   15.2   145.3    997                     
1979-01-03 11   15.3   145.3    998                     
Winds are 10-min average.

Tropical cyclone tracks developed by Michael Bath using data from the Bureau of Meteorology and Google Maps.


[Australian Severe Weather index] [Copyright Notice] [Email Contacts] [Search This Site] [Privacy Policy]
Document: tropical_cyclone_peter.htm Updated: 30 May 2013